Date String (YYYY-MM-DD hh:mm:ss) UTC,Instrument flags,Ambient pressure (hPa),Sample flow (lpm),Bypass flow (lpm),Sample temperature (°C),Ambient temperature (°C),ASC tube jacket temperature (°C),LED temperature (°C),Box temperature (°C),Sample RH (%),Span deviation,Mass concentration (μg/m³),Mass concentration (μg/m³),Mass concentration (μg/m³)
DateTimeUTC,F1_M11,P_M11,Q1_M11,Q2_M11,T1_M11,T2_M11,T3_M11,T4_M11,T5_M11,U1_M11,ZSPAN_M11,X0_M11,X2_M11,X1_M11
2023-01-14 13:00:00,,0820.6,5.00,0.00,22.6,21.1,00.0,31.6,24.2,12.9,0000.0,0000.33,0000.27,0000.25
2023-01-14 13:01:00,,0820.6,5.01,0.00,22.6,21.1,00.0,31.6,24.3,12.8,0000.0,0000.33,0000.27,0000.25
2023-01-14 13:02:00,,0820.7,5.01,0.00,22.6,21.1,00.0,31.6,24.3,12.7,0000.0,0000.35,0000.28,0000.26
2023-01-14 13:03:00,,0820.7,5.00,0.00,22.6,21.0,00.0,31.6,24.2,12.5,0000.0,0000.37,0000.30,0000.28
2023-01-14 13:04:00,,0820.6,5.00,0.00,22.6,21.0,00.0,31.6,24.3,12.9,0000.0,0000.42,0000.31,0000.29
2023-01-14 13:05:00,,0820.6,5.00,0.00,22.6,21.1,00.0,31.5,24.3,12.9,0000.0,0001.58,0000.31,0000.30
2023-01-14 13:06:00,,0820.6,5.00,0.00,22.6,21.1,00.0,31.5,24.3,12.8,0000.0,0001.59,0000.31,0000.30
2023-01-14 13:07:00,,0820.6,5.00,0.00,22.6,21.1,00.0,31.5,24.2,13.1,0000.0,0002.66,0000.33,0000.32
2023-01-14 13:08:00,,0820.6,5.01,0.00,22.6,21.1,00.0,31.5,24.3,13.4,0000.0,0002.83,0000.35,0000.33
2023-01-14 13:09:00,,0820.7,5.00,0.00,22.6,21.1,00.0,31.5,24.2,13.1,0000.0,0002.87,0000.37,0000.35
2023-01-14 13:10:00,,0820.6,4.99,0.00,22.6,21.1,00.0,31.5,24.3,13.7,0000.0,0003.23,0000.67,0000.60
2023-01-14 13:11:00,,0820.6,5.00,0.00,22.6,21.1,00.0,31.5,24.3,13.4,0000.0,0004.68,0001.04,0000.95
2023-01-14 13:12:00,,0820.6,5.00,0.00,22.6,21.2,00.0,31.5,24.3,14.1,0000.0,0006.11,0001.63,0001.46
2023-01-14 13:13:00,,0820.6,4.99,0.00,22.6,21.2,00.0,31.5,24.4,13.6,0000.0,0007.10,0002.26,0002.01
2023-01-14 13:14:00,,0820.6,5.00,0.00,22.6,21.2,00.0,31.5,24.4,13.5,0000.0,0007.55,0002.78,0002.47
2023-01-14 13:15:00,,0820.6,5.00,0.00,22.6,21.3,00.0,31.5,24.4,13.8,0000.0,0007.99,0003.30,0003.05
2023-01-14 13:16:00,,0820.6,5.01,0.00,22.6,21.3,00.0,31.5,24.4,13.4,0000.0,0007.87,0003.64,0003.41
2023-01-14 13:17:00,,0820.6,5.00,0.00,22.6,21.3,00.0,31.5,24.4,13.4,0000.0,0008.21,0003.99,0003.73
2023-01-14 13:18:00,,0820.6,5.00,0.00,22.6,21.3,00.0,31.5,24.5,13.2,0000.0,0008.19,0004.31,0004.01
2023-01-14 13:19:00,,0820.6,4.99,0.00,22.6,21.4,00.0,31.5,24.5,13.4,0000.0,0008.48,0004.61,0004.28
2023-01-14 13:20:00,,0820.6,4.99,0.00,22.6,21.4,00.0,31.5,24.5,13.4,0000.0,0009.11,0004.89,0004.52
2023-01-14 13:21:00,,0820.6,5.00,0.00,22.6,21.4,00.0,31.5,24.5,13.1,0000.0,0009.70,0004.96,0004.60
2023-01-14 13:22:00,,0820.4,5.01,0.00,22.7,21.4,00.0,31.5,24.5,13.1,0000.0,0009.24,0004.97,0004.60
2023-01-14 13:23:00,,0820.4,5.00,0.00,22.7,21.4,00.0,31.5,24.5,12.9,0000.0,0008.66,0004.84,0004.51
2023-01-14 13:24:00,,0820.6,5.00,0.00,22.7,21.4,00.0,31.5,24.5,12.9,0000.0,0008.35,0004.68,0004.37
2023-01-14 13:25:00,,0820.6,5.00,0.00,22.7,21.4,00.0,31.5,24.5,13.0,0000.0,0008.28,0004.61,0004.29
2023-01-14 13:26:00,,0820.6,4.99,0.00,22.7,21.4,00.0,31.5,24.5,13.1,0000.0,0008.01,0004.40,0004.11
2023-01-14 13:27:00,,0820.6,5.00,0.00,22.7,21.4,00.0,31.5,24.5,13.1,0000.0,0008.12,0004.25,0003.96
2023-01-14 13:28:00,,0820.5,5.00,0.00,22.7,21.4,00.0,31.5,24.5,12.9,0000.0,0008.00,0004.02,0003.75
2023-01-14 13:29:00,,0820.4,5.00,0.00,22.7,21.5,00.0,31.5,24.5,12.5,0000.0,0007.80,0003.80,0003.54
2023-01-14 13:30:00,,0820.4,5.00,0.00,22.7,21.4,00.0,31.5,24.5,12.4,0000.0,0007.40,0003.57,0003.32
2023-01-14 13:31:00,,0820.5,5.01,0.00,22.7,21.4,00.0,31.5,24.5,12.5,0000.0,0006.56,0003.37,0003.13
2023-01-14 13:32:00,,0820.6,5.00,0.00,22.7,21.5,00.0,31.5,24.6,12.4,0000.0,0005.54,0003.24,0002.92
2023-01-14 13:33:00,,0820.6,5.01,0.00,22.7,21.5,00.0,31.5,24.6,12.3,0000.0,0004.98,0003.05,0002.66
2023-01-14 13:34:00,,0820.6,4.99,0.00,22.7,21.5,00.0,31.5,24.6,12.2,0000.0,0004.69,0002.79,0002.40
2023-01-14 13:35:00,,0820.5,5.00,0.00,22.7,21.5,00.0,31.5,24.6,12.6,0000.0,0004.46,0002.60,0002.20
2023-01-14 13:36:00,,0820.3,5.00,0.00,22.7,21.5,00.0,31.5,24.6,12.5,0000.0,0004.47,0002.37,0002.02
2023-01-14 13:37:00,,0820.3,5.00,0.00,22.7,21.5,00.0,31.6,24.6,13.3,0000.0,0004.60,0002.36,0001.97
2023-01-14 13:38:00,,0820.2,5.01,0.00,22.7,21.5,00.0,31.6,24.6,13.4,0000.0,0004.64,0002.41,0002.00
2023-01-14 13:39:00,,0820.4,5.00,0.00,22.7,21.5,00.0,31.6,24.6,13.1,0000.0,0004.52,0002.48,0002.05
2023-01-14 13:40:00,,0820.4,5.00,0.00,22.7,21.5,00.0,31.6,24.6,13.5,0000.0,0004.59,0002.63,0002.19
2023-01-14 13:41:00,,0820.4,5.01,0.00,22.8,21.5,00.0,31.6,24.6,13.8,0000.0,0005.09,0002.99,0002.48
2023-01-14 13:42:00,,0820.4,4.99,0.00,22.7,21.5,00.0,31.6,24.6,13.7,0000.0,0006.14,0003.20,0002.75
2023-01-14 13:43:00,,0820.2,5.00,0.00,22.8,21.5,00.0,31.6,24.6,13.3,0000.0,0007.12,0003.37,0003.03
2023-01-14 13:44:00,,0820.2,4.99,0.00,22.8,21.5,00.0,31.6,24.6,12.8,0000.0,0007.72,0003.45,0003.14
2023-01-14 13:45:00,,0820.2,5.00,0.00,22.8,21.5,00.0,31.6,24.6,12.7,0000.0,0008.45,0003.52,0003.18
2023-01-14 13:46:00,,0820.2,5.00,0.00,22.8,21.5,00.0,31.6,24.6,12.6,0000.0,0008.49,0003.53,0003.18
2023-01-14 13:47:00,,0820.3,5.00,0.00,22.8,21.5,00.0,31.6,24.6,12.7,0000.0,0008.43,0003.53,0003.16
2023-01-14 13:48:00,,0820.2,4.99,0.00,22.8,21.5,00.0,31.6,24.7,12.7,0000.0,0008.37,0003.48,0003.12
2023-01-14 13:49:00,,0820.2,5.01,0.00,22.8,21.5,00.0,31.6,24.7,12.8,0000.0,0008.28,0003.41,0003.01
2023-01-14 13:50:00,,0820.2,5.01,0.00,22.8,21.5,00.0,31.6,24.6,12.9,0000.0,0008.23,0003.40,0002.98
2023-01-14 13:51:00,,0820.2,5.01,0.00,22.8,21.5,00.0,31.6,24.6,12.8,0000.0,0008.19,0003.37,0002.95
2023-01-14 13:52:00,,0820.2,4.98,0.00,22.8,21.5,00.0,31.6,24.6,12.8,0000.0,0008.53,0003.23,0002.79
2023-01-14 13:53:00,,0820.2,5.00,0.00,22.8,21.5,00.0,31.6,24.6,12.6,0000.0,0008.48,0003.13,0002.60
2023-01-14 13:54:00,,0820.2,4.98,0.00,22.8,21.5,00.0,31.6,24.6,12.3,0000.0,0007.85,0002.84,0002.32
2023-01-14 13:55:00,,0820.2,5.01,0.00,22.8,21.5,00.0,31.6,24.6,12.3,0000.0,0007.57,0002.66,0002.16
2023-01-14 13:56:00,,0820.2,5.01,0.00,22.8,21.4,00.0,31.6,24.6,13.3,0000.0,0006.80,0002.76,0002.30
2023-01-14 13:57:00,,0820.2,5.00,0.00,22.8,21.2,00.0,31.6,24.5,12.7,0000.0,0006.70,0002.78,0002.35
2023-01-14 13:58:00,,0820.2,5.00,0.00,22.7,21.1,00.0,31.6,24.4,13.1,0000.0,0007.44,0002.88,0002.46
2023-01-14 13:59:00,,0820.2,5.00,0.00,22.7,21.1,00.0,31.6,24.4,12.9,0000.0,0007.46,0002.90,0002.47
